User: anonymous   Login
Location: Sherrills_Ford_Terrell
(35.6000°N, 80.9830°W)
Time: 14:31:21
(UTC-04:00)
Language:

CZ-4B R/B - Orbit

View from above orbital plane
View from above orbital plane
View from above satellite
View from above satellite

Ground track
Ground track

The orbit data is extracted from the following two-line orbital elements,

1 29093U 06015B   15126.09016414  .00008242  00000-0  25272-3 0  9992
2 29093 097.4945 212.6782 0079151 200.9262 258.2693 15.30947093498866
Epoch (UTC): 06 May 2015 02:09:50
Eccentricity: 0.0079151
inclination: 97.4945°
perigee height: 419 km
apogee height: 527 km
right ascension of ascending node: 212.6782°
argument of perigee: 200.9262°
revolutions per day: 15.30947093
mean anomaly at epoch: 258.2693°
orbit number at epoch: 49886

The dashed part of the orbit path shows where the satellite is in the earth's shadow,  

DLR